| time (UTC) | temp C | wind direction | speed KPH | gust KPH | rain 1hr cm | rain 24hr cm | rain mn cm | humidity % | barometer mb |
| 20260506163010 | 13 | 44 | 0.0 | 0.0 | 0.00 | 2.03 | 0.91 | 16 | 1006.1 |
| 20260506161600 | 13 | 44 | 0.0 | 1.6 | 0.00 | 2.03 | 0.91 | 26 | 1005.9 |
| 20260506160056 | 13 | 44 | 0.0 | 0.0 | 0.00 | 2.03 | 0.91 | 35 | 1005.6 |
| 20260506154552 | 13 | 44 | 0.0 | 0.0 | 0.03 | 2.03 | 0.91 | 49 | 1005.7 |
| 20260506153035 | 13 | 44 | 0.0 | 0.0 | 0.05 | 2.03 | 0.91 | 25 | 1005.4 |
| 20260506151532 | 13 | 44 | 0.0 | 0.0 | 0.38 | 2.03 | 0.91 | 1 | 1005.2 |
| 20260506150018 | 12 | 44 | 0.0 | 1.6 | 0.89 | 2.03 | 0.91 | 1 | 1004.6 |
| 20260506144519 | 11 | 44 | 0.0 | 0.0 | 0.86 | 2.03 | 0.89 | 17 | 1005.7 |
| 20260506143013 | 12 | 44 | 0.0 | 3.2 | 0.84 | 2.01 | 0.86 | 60 | 1005.8 |
| 20260506141504 | 14 | 44 | 0.0 | 19.3 | 0.43 | 1.60 | 0.46 | 77 | 1004.5 |
| 20260506140100 | 17 | 44 | 0.0 | 0.0 | 0.00 | 1.17 | 0.03 | 70 | 1002.8 |
| 20260506140000 | 17 | 44 | 0.0 | 0.0 | 0.00 | 1.17 | 0.03 | 71 | 1002.7 |
| 20260506134601 | 18 | 44 | 0.0 | 0.0 | 0.00 | 1.17 | 0.03 | 68 | 1003.2 |
| 20260506133057 | 18 | 44 | 0.0 | 1.6 | 0.00 | 1.17 | 0.03 | 63 | 1003.3 |
| 20260506131546 | 18 | 44 | 0.0 | 3.2 | 0.00 | 1.17 | 0.03 | 64 | 1003.4 |
| 20260506130042 | 17 | 44 | 0.0 | 1.6 | 0.00 | 1.17 | 0.03 | 65 | 1003.5 |
| 20260506124540 | 17 | 44 | 0.0 | 1.6 | 0.00 | 1.17 | 0.03 | 64 | 1003.7 |
| 20260506123032 | 17 | 44 | 0.0 | 1.6 | 0.00 | 1.17 | 0.03 | 64 | 1003.8 |
| 20260506121529 | 17 | 44 | 0.0 | 1.6 | 0.00 | 1.17 | 0.03 | 67 | 1004.0 |
| 20260506120029 | 18 | 44 | 0.0 | 3.2 | 0.00 | 1.17 | 0.03 | 65 | 1004.1 |
| 20260506114522 | 18 | 44 | 0.0 | 3.2 | 0.00 | 1.17 | 0.03 | 65 | 1004.2 |
| 20260506113015 | 17 | 44 | 0.0 | 1.6 | 0.00 | 1.17 | 0.03 | 69 | 1004.4 |
| 20260506111510 | 17 | 44 | 0.0 | 1.6 | 0.00 | 1.17 | 0.03 | 67 | 1004.7 |
| 20260506110007 | 17 | 44 | 0.0 | 0.0 | 0.00 | 1.17 | 0.03 | 69 | 1004.8 |
| 20260506104503 | 16 | 44 | 0.0 | 1.6 | 0.00 | 1.17 | 0.03 | 72 | 1004.9 |
| 20260506103057 | 16 | 44 | 0.0 | 0.0 | 0.00 | 1.17 | 0.03 | 75 | 1005.4 |
| 20260506101553 | 16 | 44 | 0.0 | 0.0 | 0.00 | 1.17 | 0.03 | 73 | 1005.5 |
| 20260506100051 | 15 | 44 | 0.0 | 1.6 | 0.00 | 1.17 | 0.03 | 73 | 1005.4 |
| 20260506094555 | 15 | 44 | 0.0 | 1.6 | 0.00 | 1.17 | 0.03 | 72 | 1005.5 |
| 20260506093042 | 16 | 44 | 0.0 | 0.0 | 0.00 | 1.17 | 0.03 | 72 | 1005.7 |
| 20260506091535 | 16 | 44 | 0.0 | 0.0 | 0.00 | 1.17 | 0.03 | 74 | 1005.8 |
| 20260506090031 | 16 | 44 | 0.0 | 1.6 | 0.00 | 1.17 | 0.03 | 73 | 1005.7 |
| 20260506084534 | 15 | 44 | 0.0 | 0.0 | 0.00 | 1.17 | 0.03 | 75 | 1005.6 |
| 20260506083023 | 15 | 44 | 0.0 | 0.0 | 0.00 | 1.17 | 0.03 | 76 | 1005.8 |
| 20260506081521 | 16 | 44 | 0.0 | 1.6 | 0.00 | 1.17 | 0.03 | 74 | 1005.8 |
| 20260506073005 | 16 | 44 | 0.0 | 0.0 | 0.00 | 1.17 | 0.03 | 74 | 1006.2 |
| 20260506071504 | 14 | 44 | 0.0 | 0.0 | 0.00 | 1.17 | 0.03 | 67 | 1006.5 |
| 20260506061543 | 11 | 43 | 0.0 | 0.0 | 0.00 | 1.17 | 0.03 | 1 | 1006.8 |
| 20260506044529 | 8 | 42 | 0.0 | 0.0 | 0.00 | 1.14 | 0.00 | 1 | 1007.4 |
| 20260506043014 | 8 | 42 | 0.0 | 0.0 | 0.00 | 1.14 | 0.00 | 1 | 1007.1 |
| 20260506041507 | 7 | 43 | 0.0 | 0.0 | 0.00 | 1.14 | 0.00 | 1 | 1007.2 |
| 20260506040008 | 8 | 43 | 0.0 | 0.0 | 0.00 | 1.14 | 0.00 | 1 | 1007.5 |
| 20260506034605 | 8 | 42 | 0.0 | 0.0 | 0.00 | 1.14 | 0.00 | 1 | 1007.6 |
| 20260506033118 | 8 | 42 | 0.0 | 0.0 | 0.00 | 1.14 | 0.00 | 1 | 1007.5 |
| 20260506031553 | 8 | 43 | 0.0 | 0.0 | 0.00 | 1.14 | 0.00 | 1 | 1007.7 |
| 20260506030057 | 8 | 43 | 0.0 | 0.0 | 0.00 | 1.14 | 0.00 | 1 | 1007.8 |
| 20260506024542 | 8 | 43 | 0.0 | 0.0 | 0.00 | 1.14 | 0.00 | 1 | 1008.0 |
| 20260506023039 | 8 | 42 | 0.0 | 0.0 | 0.00 | 1.14 | 0.00 | 1 | 1008.2 |
| 20260506021534 | 8 | 43 | 0.0 | 0.0 | 0.00 | 1.14 | 0.00 | 1 | 1008.3 |
| 20260506020027 | 8 | 42 | 0.0 | 0.0 | 0.00 | 1.14 | 0.00 | 1 | 1008.1 |
| 20260506014523 | 8 | 43 | 0.0 | 0.0 | 0.00 | 1.14 | 0.00 | 1 | 1008.2 |
| 20260506013020 | 8 | 42 | 0.0 | 0.0 | 0.00 | 1.14 | 0.00 | 1 | 1008.3 |
| 20260506011534 | 9 | 42 | 0.0 | 0.0 | 0.00 | 1.14 | 0.00 | 1 | 1008.4 |
| 20260506010010 | 9 | 44 | 0.0 | 0.0 | 0.00 | 1.14 | 0.00 | 1 | 1008.6 |
| 20260506004516 | 9 | 43 | 0.0 | 0.0 | 0.00 | 1.14 | 0.00 | 1 | 1008.5 |
| 20260506003003 | 10 | 42 | 0.0 | 0.0 | 0.00 | 1.14 | 0.00 | 1 | 1008.4 |
| 20260506001601 | 10 | 43 | 0.0 | 0.0 | 0.00 | 1.14 | 0.00 | 1 | 1008.7 |
| 20260506000058 | 10 | 43 | 0.0 | 0.0 | 0.00 | 1.14 | 0.00 | 1 | 1008.8 |
| 20260505234549 | 10 | 42 | 0.0 | 0.0 | 0.00 | 1.14 | 0.00 | 1 | 1008.8 |
| 20260505233048 | 10 | 43 | 0.0 | 0.0 | 0.00 | 1.14 | 0.00 | 1 | 1008.8 |
| 20260505231543 | 10 | 43 | 0.0 | 0.0 | 0.00 | 1.14 | 0.00 | 1 | 1009.0 |
| 20260505230035 | 10 | 42 | 0.0 | 0.0 | 0.00 | 1.14 | 0.00 | 1 | 1009.0 |
| 20260505224532 | 10 | 43 | 0.0 | 0.0 | 0.03 | 1.14 | 0.00 | 1 | 1009.1 |
| 20260505223027 | 11 | 42 | 0.0 | 0.0 | 0.03 | 1.14 | 0.00 | 1 | 1009.1 |
| 20260505221523 | 11 | 43 | 0.0 | 0.0 | 0.08 | 1.14 | 0.00 | 1 | 1009.1 |
| 20260505220040 | 11 | 43 | 0.0 | 0.0 | 0.13 | 1.14 | 0.00 | 1 | 1009.3 |
| 20260505214525 | 11 | 42 | 0.0 | 0.0 | 0.18 | 1.12 | 1.12 | 1 | 1009.5 |
| 20260505213018 | 11 | 42 | 0.0 | 0.0 | 0.36 | 1.12 | 1.12 | 1 | 1009.6 |
| 20260505211505 | 11 | 43 | 0.0 | 0.0 | 0.38 | 1.07 | 1.07 | 1 | 1009.5 |
| 20260505210001 | 11 | 42 | 0.0 | 1.6 | 0.48 | 1.02 | 1.02 | 1 | 1009.4 |
| 20260505204556 | 11 | 42 | 0.0 | 0.0 | 0.64 | 0.94 | 0.94 | 7 | 1009.3 |
| 20260505203042 | 11 | 43 | 0.0 | 0.0 | 0.71 | 0.76 | 0.76 | 17 | 1009.1 |
| 20260505201541 | 11 | 42 | 0.0 | 0.0 | 0.66 | 0.69 | 0.69 | 35 | 1008.7 |
| 20260505200035 | 11 | 43 | 0.0 | 0.0 | 0.51 | 0.53 | 0.53 | 52 | 1008.5 |
| 20260505194528 | 12 | 43 | 0.0 | 0.0 | 0.28 | 0.30 | 0.30 | 67 | 1008.0 |
| 20260505193124 | 12 | 43 | 0.0 | 0.0 | 0.00 | 0.03 | 0.03 | 77 | 1007.8 |
| 20260505191523 | 12 | 43 | 0.0 | 0.0 | 0.00 | 0.03 | 0.03 | 78 | 1006.7 |
| 20260505190014 | 12 | 42 | 0.0 | 0.0 | 0.00 | 0.03 | 0.03 | 79 | 1006.4 |
| 20260505184511 | 13 | 43 | 0.0 | 0.0 | 0.00 | 0.03 | 0.03 | 77 | 1006.2 |
| 20260505183007 | 15 | 44 | 0.0 | 0.0 | 0.00 | 0.03 | 0.03 | 75 | 1006.0 |
| 20260505181502 | 15 | 44 | 0.0 | 0.0 | 0.00 | 0.03 | 0.03 | 70 | 1005.9 |
| 20260505180057 | 16 | 44 | 0.0 | 0.0 | 0.00 | 0.03 | 0.03 | 69 | 1006.1 |
| 20260505174553 | 16 | 44 | 0.0 | 0.0 | 0.00 | 0.03 | 0.03 | 71 | 1005.8 |
| 20260505173051 | 16 | 44 | 0.0 | 1.6 | 0.00 | 0.03 | 0.03 | 69 | 1005.4 |
| 20260505171557 | 17 | 44 | 0.0 | 0.0 | 0.00 | 0.03 | 0.03 | 72 | 1005.4 |
| 20260505170039 | 17 | 44 | 0.0 | 0.0 | 0.00 | 0.03 | 0.03 | 70 | 1005.1 |
| 20260505164552 | 18 | 44 | 0.0 | 0.0 | 0.00 | 0.03 | 0.03 | 67 | 1005.0 |